Location: Betpouey
(42.8833°N, 0.0333°E)
Time: 12:42:05
(UTC+00:00)

SL-08 R/B - Visible Passes

Search period start: 12 April 2021 00:00
Search period end: 22 April 2021 00:00
Orbit: 949 x 1019 km, 82.9° (Epoch: 11 April)

Date Brightness Start Highest point End Pass type
(mag) Time Alt. Az. Time Alt. Az. Time Alt. Az.
12 Apr 5.2 02:26:16 10° N 02:32:13 50° ENE 02:36:20 20° SE visible
12 Apr 5.5 04:12:36 10° NNW 04:17:22 24° W 04:21:08 14° SW visible
13 Apr 6.9 01:10:38 10° NNE 01:13:52 14° ENE 01:17:06 10° E visible
13 Apr 4.3 02:54:10 10° N 03:00:19 87° W 03:03:29 31° S visible
13 Apr 6.1 04:42:34 10° NW 04:44:53 12° WNW 04:47:11 10° W visible
14 Apr 6.2 01:37:20 10° NNE 01:42:27 27° ENE 01:45:55 17° ESE visible
14 Apr 4.7 03:22:25 10° NNW 03:28:13 47° W 03:30:43 31° SW visible
15 Apr 5.1 02:04:50 10° N 02:10:46 49° ENE 02:13:15 32° SE visible
15 Apr 5.5 03:51:08 10° NNW 03:55:56 25° W 03:58:04 20° WSW visible
16 Apr 6.9 00:49:15 10° NNE 00:52:25 14° ENE 00:55:35 10° E visible
16 Apr 4.3 02:32:43 10° N 02:38:53 89° W 02:40:39 50° S visible
16 Apr 6.1 04:21:02 10° NW 04:23:28 13° WNW 04:25:28 11° W visible
17 Apr 6.1 01:15:55 10° NNE 01:21:00 26° ENE 01:23:17 21° ESE visible
17 Apr 4.7 03:00:59 10° NNW 03:06:48 47° W 03:08:06 41° SW visible
18 Apr 5.1 01:43:24 10° N 01:49:20 49° ENE 01:50:47 41° ESE visible
18 Apr 5.4 03:29:41 10° NNW 03:34:31 25° W 03:35:36 24° W visible
19 Apr 6.8 00:27:53 10° NNE 00:30:59 14° ENE 00:33:30 11° E visible
19 Apr 4.3 02:11:17 10° N 02:17:27 90° W 02:18:20 68° S visible
19 Apr 6.1 03:59:31 10° NW 04:02:03 13° WNW 04:03:09 12° W visible
20 Apr 6.1 00:54:30 10° NNE 00:59:34 26° ENE 01:01:05 24° E visible
20 Apr 4.6 02:39:31 10° NNW 02:45:22 48° W 02:45:55 47° WSW visible
21 Apr 5.1 01:21:59 10° N 01:27:53 48° ENE 01:28:41 45° E visible
21 Apr 5.5 03:08:13 10° NNW 03:13:06 26° W 03:13:30 25° W visible
